Location: Krasnoyarskiy Pitomnik
(51.1333°N, 71.6167°E)
Time: 15:35:44
(UTC+00:00)

CZ-2D R/B - Pass Details

Date: 22 October 2021
Orbit: 551 x 638 km, 97.9° (Epoch: 27 November)

Event Time Altitude Azimuth Distance (km) Brightness Sun altitude
Rises 23:27:58 0° 10° (N) 2,785 7.2 -22.9°
Reaches altitude 10° 23:30:10 10° 5° (N) 1,871 6.2 -22.6°
Enters shadow 23:32:48 35° 341° (NNW) 917 4.3 -22.2°
